CW9676 Weather Reports


time (UTC)temp
C
wind
direction
speed
KPH
gust
KPH
rain 1hr
cm
rain 24hr
cm
rain mn
cm
humidity
%
barometer
mb
20260904183528 26 245 6.4 16.1 0.00 0.99 0.97 51 1007.5
20260904182517 26 4 8.0 16.1 0.00 0.99 0.97 53 1007.7
20260904181536 25 211 6.4 16.1 0.00 0.99 0.97 59 1008.0
20260904180555 25 218 6.4 14.5 0.00 0.99 0.97 62 1008.1
20260904175541 23 152 4.8 14.5 0.00 0.99 0.97 62 1008.2
20260904174602 23 165 6.4 16.1 0.00 0.99 0.97 62 1008.5
20260904171251 23 213 6.4 17.7 0.00 0.99 0.97 68 1008.8
20260904170301 23 187 6.4 17.7 0.00 0.99 0.97 64 1008.7
20260904165246 23 4 8.0 16.1 0.00 0.99 0.97 69 1008.8
20260904163137 22 179 8.0 14.5 0.00 0.99 0.97 74 1008.6
20260904162128 22 130 6.4 17.7 0.00 0.99 0.97 72 1008.7
20260904161136 22 132 8.0 19.3 0.00 0.99 0.97 73 1008.7
20260904160125 21 215 8.0 19.3 0.00 0.99 0.97 76 1008.6
20260904155144 21 159 8.0 16.1 0.00 0.99 0.97 78 1008.6
20260904154126 20 192 4.8 12.9 0.00 0.99 0.97 81 1008.6
20260904153059 20 179 6.4 14.5 0.00 0.99 0.97 83 1008.6
20260904150918 19 204 6.4 11.3 0.00 0.99 0.97 85 1008.7
20260904145904 19 194 6.4 12.9 0.00 0.99 0.97 84 1008.6
20260904143735 19 4 4.8 9.7 0.00 0.99 0.97 85 1008.6
20260904141702 19 217 3.2 9.7 0.00 0.99 0.97 87 1008.3
20260904140714 18 200 4.8 9.7 0.00 0.99 0.97 87 1008.2
20260904133459 17 215 4.8 12.9 0.00 0.99 0.97 91 1007.7
20260904131313 17 206 4.8 9.7 0.00 0.99 0.97 92 1007.5
20260904130253 17 204 6.4 12.9 0.00 0.99 0.97 91 1007.3
20260904125300 17 210 6.4 14.5 0.00 0.99 0.97 92 1007.1
20260904124309 17 225 8.0 16.1 0.00 0.99 0.97 92 1006.9
20260904123329 17 215 8.0 17.7 0.00 0.99 0.97 92 1006.8
20260904122306 17 207 8.0 17.7 0.00 0.99 0.97 92 1006.8
20260904120105 17 198 8.0 14.5 0.00 0.99 0.97 92 1006.6
20260904115032 17 175 6.4 16.1 0.00 0.99 0.97 92 1006.6
20260904114019 17 213 8.0 16.1 0.00 0.99 0.97 93 1006.7
20260904113033 17 213 8.0 14.5 0.00 0.99 0.97 93 1006.7
20260904112010 17 209 4.8 9.7 0.00 0.99 0.97 93 1006.6
20260904110940 17 209 4.8 9.7 0.00 0.99 0.97 94 1006.6
20260904105932 17 209 4.8 8.0 0.00 0.99 0.97 94 1006.5
20260904104953 17 225 1.6 4.8 0.00 0.99 0.97 95 1006.6
20260904103954 17 340 0.0 1.6 0.00 0.99 0.97 95 1006.6
20260904103016 17 340 0.0 1.6 0.00 0.99 0.97 95 1006.6
20260904102041 17 111 0.0 1.6 0.00 0.99 0.97 95 1006.6
20260904101034 17 111 0.0 3.2 0.00 0.99 0.97 95 1006.8
20260904100005 17 337 4.8 14.5 0.00 0.99 0.97 94 1006.8
20260904095029 17 318 6.4 14.5 0.00 0.99 0.97 94 1006.8
20260904094053 17 333 4.8 14.5 0.00 0.99 0.97 94 1006.9
20260904093058 16 348 8.0 14.5 0.00 0.99 0.97 93 1007.0
20260904092115 17 4 9.7 16.1 0.10 0.99 0.97 93 1007.0
20260904091128 17 352 9.7 20.9 0.33 0.99 0.97 92 1007.0
20260904084944 18 14 6.4 19.3 0.00 0.00 0.00 78 1007.3
20260904083925 19 29 9.7 19.3 0.00 0.00 0.00 77 1007.2
20260904082858 19 359 1.6 9.7 0.00 0.00 0.00 76 1007.0
20260904081847 19 37 9.7 17.7 0.00 0.00 0.00 77 1007.0
20260904080910 19 67 3.2 8.0 0.00 0.00 0.00 77 1007.0
20260904075849 19 4 6.4 9.7 0.00 0.00 0.00 77 1006.6
20260904074843 19 204 4.8 9.7 0.00 0.00 0.00 77 1006.6
20260904073847 19 192 3.2 8.0 0.00 0.00 0.00 77 1006.6
20260904071736 19 214 6.4 12.9 0.00 0.00 0.00 76 1006.5
20260904070731 19 194 6.4 14.5 0.00 0.00 0.00 76 1006.5
20260904065719 19 199 8.0 17.7 0.00 0.00 0.00 75 1006.4
20260904064743 19 4 9.7 17.7 0.00 0.00 0.00 75 1006.5
20260904062541 19 4 6.4 16.1 0.00 0.00 0.00 74 1006.7
20260904061600 19 4 8.0 19.3 0.00 0.00 0.00 73 1006.5
20260904060538 20 222 8.0 19.3 0.00 0.00 0.00 73 1006.6
20260904055553 20 4 6.4 14.5 0.00 0.00 0.00 73 1006.6
20260904053512 20 4 6.4 12.9 0.00 0.00 0.00 73 1006.6
20260904051328 20 203 6.4 14.5 0.00 0.00 0.00 71 1006.5
20260904050303 20 163 6.4 14.5 0.00 0.00 0.00 70 1006.5
20260904045246 20 165 4.8 14.5 0.00 0.00 0.00 69 1006.5
20260904044256 21 195 4.8 11.3 0.00 0.00 0.00 68 1006.4
20260904043316 21 146 4.8 12.9 0.00 0.00 0.00 67 1006.4
20260904041053 21 188 6.4 14.5 0.00 0.00 0.00 66 1006.2
20260904034933 21 4 6.4 14.5 0.00 0.00 0.00 65 1006.1
20260904033946 21 175 6.4 14.5 0.00 0.00 0.00 64 1006.0
20260904033004 21 161 6.4 12.9 0.00 0.00 0.00 64 1005.9
20260904032020 21 4 4.8 9.7 0.00 0.00 0.00 63 1005.9
20260904025948 21 206 4.8 8.0 0.00 0.00 0.00 63 1005.5
20260904024948 21 4 4.8 9.7 0.00 0.00 0.00 62 1005.4
20260904023958 21 215 6.4 11.3 0.00 0.00 0.00 62 1005.3
20260904023016 22 227 6.4 11.3 0.00 0.00 0.00 62 1005.0
20260904022036 22 202 4.8 9.7 0.00 0.00 0.00 61 1004.8
20260904021051 22 190 4.8 8.0 0.00 0.00 0.00 60 1004.7
20260904020104 22 194 4.8 9.7 0.00 0.00 0.00 59 1004.5
20260904015119 23 188 6.4 16.1 0.00 0.00 0.00 56 1004.6
20260904014048 23 141 6.4 16.1 0.00 0.00 0.00 51 1004.6
20260904011847 23 155 3.2 8.0 0.00 0.00 0.00 50 1004.4
20260904010839 23 167 4.8 14.5 0.00 0.00 0.00 49 1004.4
20260904004726 24 177 0.0 0.0 0.00 0.00 0.00 50 1004.3
20260904003740 24 176 0.0 0.0 0.00 0.00 0.00 50 1004.4
20260904001616 25 93 0.0 1.6 0.00 0.00 0.00 48 1004.5
20260904000638 25 93 0.0 0.0 0.00 0.00 0.00 49 1004.5
20260903233258 25 58 3.2 8.0 0.00 0.00 0.00 50 1004.6
20260903232319 25 58 1.6 6.4 0.00 0.00 0.00 48 1004.6
20260903231336 25 57 1.6 8.0 0.00 0.00 0.00 49 1004.5
20260903230336 25 52 3.2 8.0 0.00 0.00 0.00 51 1004.5
20260903225325 26 46 3.2 8.0 0.00 0.00 0.00 46 1004.5
20260903224302 26 55 1.6 8.0 0.00 0.00 0.00 43 1004.5
20260903223238 27 32 1.6 6.4 0.00 0.00 0.00 41 1004.5
20260903222257 26 258 0.0 4.8 0.00 0.00 0.00 42 1004.4
20260903221227 26 192 1.6 4.8 0.00 0.00 0.00 43 1004.5
20260903220247 26 153 0.0 3.2 0.00 0.00 0.00 44 1004.5
20260903215306 26 67 1.6 8.0 0.00 0.00 0.00 44 1004.7
20260903214319 26 103 0.0 8.0 0.00 0.00 0.00 44 1004.8
20260903213253 25 29 1.6 1.6 0.00 0.00 0.00 43 1004.9
20260903212300 26 45 3.2 12.9 0.00 0.00 0.00 43 1005.1
20260903211244 26 145 4.8 12.9 0.00 0.00 0.00 42 1005.0
20260903210230 26 78 3.2 14.5 0.00 0.00 0.00 41 1005.2
20260903205217 26 100 6.4 14.5 0.00 0.00 0.00 42 1005.2
20260903204234 28 129 4.8 12.9 0.00 0.00 0.00 38 1005.2
20260903203223 28 317 6.4 12.9 0.00 0.00 0.00 40 1005.2
20260903201058 27 359 4.8 16.1 0.00 0.00 0.00 45 1005.7
20260903200107 26 4 4.8 14.5 0.00 0.00 0.00 48 1005.7
20260903195046 25 111 4.8 14.5 0.00 0.00 0.00 51 1006.0
20260903194046 24 166 4.8 8.0 0.00 0.00 0.00 53 1006.1
20260903193026 23 193 3.2 8.0 0.00 0.00 0.00 61 1006.1
20260903192034 22 142 4.8 11.3 0.00 0.00 0.00 64 1006.2
20260903191046 22 191 6.4 12.9 0.00 0.00 0.00 62 1006.3
20260903190045 22 177 9.7 17.7 0.00 0.00 0.00 61 1006.4